Regional Weather Roundup
Issued by NWS

Home | Current Version | Previous Version | Graphics & Text | Print | Product List | Glossary Off
Versions: 1 2 3 4 5 6 7 8 9 10 11 12 13 14 15 16 17 18 19 20 21 22 23 24 25 26 27 28 29 30 31 32 33 34 35 36 37 38 39 40 41 42 43 44 45 46 47 48 49 50

606
ASUS43 KTOP 251859
RWRKS

WEATHER ROUNDUP FOR KANSAS
NATIONAL WEATHER SERVICE GOODLAND KS
200 PM CDT WED MAY 25 2016

NOTE:  "FAIR" INDICATES FEW OR NO CLOUDS BELOW 12,000 FEET WITH NO
SIGNIFICANT WEATHER AND/OR OBSTRUCTIONS TO VISIBILITY.

KSZ001>006-013>018-027>032-041>047-252000-
NORTHWEST KANSAS

CITY           SKY/WX    TMP DP  RH WIND       PRES   REMARKS
GOODLAND       SUNNY     71  54  54 E5        29.94F
HAYS           CLOUDY    66  63  88 NE6       29.85F
HILL CITY      CLOUDY    69  61  75 SW5       29.89R
RUSSELL        MOSUNNY   73  67  81 NE9       29.83F
$$

KSZ061>065-074>080-084>089-252000-
SOUTHWEST KANSAS

CITY           SKY/WX    TMP DP  RH WIND       PRES   REMARKS
DODGE CITY     SUNNY     81  62  52 W10       29.86F
ELKHART          N/A     85  35  16 SW10        N/A
GARDEN CITY    SUNNY     80  58  46 NW14      29.89S
GREAT BEND     MOSUNNY   81  66  61 S8        29.82F
LIBERAL        SUNNY     84  45  24 SW5G16    29.91S
$$

KSZ066>073-081>083-090>101-252000-
SOUTHEAST KANSAS

CITY           SKY/WX    TMP DP  RH WIND       PRES   REMARKS
CHANUTE        CLOUDY    80  65  59 S14       29.91S
COFFEYVILLE    MOSUNNY   81  70  69 S17G26    29.89F
HUTCHINSON     MOSUNNY   85  73  67 S15       29.82F
MEDICINE LODGE   N/A     89  58  34 S14G22    29.80F
NEWTON         CLOUDY    79  70  73 S12G22    29.88S
PARSONS        MOSUNNY   82  69  64 S13G21    29.91F
WICHITA INTL   PTSUNNY   84  73  69 S20G26    29.82F
WICHITA JABRA  PTSUNNY   81  72  74 S17G25    29.83F
WICHITA MCCONL PTSUNNY   81  72  74 S16       29.83F
WINFIELD       PTSUNNY   83  72  69 S18G32    29.85S
$$

KSZ007>012-019>026-033>040-048>060-102>105-252000-
NORTHEAST KANSAS

CITY           SKY/WX    TMP DP  RH WIND       PRES   REMARKS
CONCORDIA      CLOUDY    73  65  75 SE12      29.86S
EMPORIA        CLOUDY    77  66  68 SE14      29.89F
LAWRENCE       SUNNY     79  64  60 SE16      29.89F
MANHATTAN      CLOUDY    78  67  68 S12G17    29.85F
OLATHE IND     SUNNY     78  63  59 SE13      29.92F
OLATHE EXE     MOSUNNY   76  63  64 S9        29.92F
SALINA         PTSUNNY   83  71  67 S13       29.83F
TOPEKA BILLARD MOSUNNY   78  65  63 S10       29.88F
TOPEKA FORBES  CLOUDY    75  63  66 SE14      29.89F
$$




USA.gov is the U.S. government's official web portal to all federal, state and local government web resources and services.